[Iaude] MPEC M40: 2024 LL6 [a=2.48,e=0.52,i=3.6,H=24.0]

mpec at cfa.harvard.edu mpec at cfa.harvard.edu
Fri Jun 21 13:56:10 EDT 2024


M.P.E.C. 2024-M40                                 Issued 2024 June 21, 17:54 UT

     The Minor Planet Electronic Circulars contain information on unusual
         minor planets, routine data on comets and natural satellites,
         and occasional editorial announcements.  They are published
    on behalf of Division F of the International Astronomical Union by the
          Minor Planet Center, Smithsonian Astrophysical Observatory,
                          Cambridge, MA 02138, U.S.A.
			  
             Prepared using the Tamkin Foundation Computer Network

                              MPC at CFA.HARVARD.EDU
            URL https://www.minorplanetcenter.net/    ISSN 1523-6714

                                    2024 LL6                                    


Observations:
     K24L06L  C2024 05 06.48139715 39 55.285-08 23 40.25         23.69GVEM040F52
     K24L06L  C2024 05 06.49329615 39 55.442-08 23 31.34         22.77GVEM040F52
     K24L06L  C2024 05 06.50516715 39 55.600-08 23 23.21         23.14GVEM040F52
     K24L06L  C2024 05 31.45061415 50 16.280-03 18 47.05         22.71GVEM040F51
     K24L06L  C2024 05 31.46290215 50 16.621-03 18 39.58         22.44GVEM040F51
     K24L06L  C2024 05 31.47522015 50 16.943-03 18 31.45         22.39GVEM040F51
     K24L06L  C2024 05 31.48747415 50 17.266-03 18 23.48         21.50GVEM040F51
     K24L06L* C2024 06 13.37992416 02 15.756-01 40 33.24         22.24wXEM040F51
     K24L06L  C2024 06 13.39395516 02 16.618-01 40 29.67         22.62wXEM040F51
     K24L06L  C2024 06 13.40508416 02 17.326-01 40 26.80         22.31wXEM040F51
     K24L06L  C2024 06 14.38331316 03 34.239-01 36 34.81         22.24GVEM040F52
     K24L06L  C2024 06 14.38413916 03 34.301-01 36 34.76         22.10GVEM040F52
     K24L06L 1C2024 06 15.36808616 04 55.236-01 33 15.52         22.98GVEM040T12
     K24L06L 1C2024 06 15.37996616 04 56.039-01 33 13.11         21.98GVEM040T12

Observer details:
F51 Pan-STARRS 1, Haleakala.  Observers J. Herman, T. Lowe, P. Minguez, A.
    Schultz, I. Smith.  Measurers K. Chambers, T. de Boer, J. Fairlamb, H.
    Gao, M. Huber, C.-C. Lin, E. Magnier, Y. Ramanjooloo, R. Wainscoat, R.
    Weryk.  1.8-m Ritchey-Chretien + CCD.
F52 Pan-STARRS 2, Haleakala.  Observers J. Herman, T. Lowe, P. Minguez, A.
    Schultz, I. Smith.  Measurers K. Chambers, T. de Boer, J. Fairlamb, H.
    Gao, M. Huber, C.-C. Lin, E. Magnier, Y. Ramanjooloo, R. Wainscoat, R.
    Weryk.  1.8-m Ritchey-Chretien + CCD.
T12 University of Hawaii 88-inch telescope, Maunakea.  Observer Y.
    Ramanjooloo.  Measurers R. Weryk, Y. Ramanjooloo, J. Fairlamb, R.
    Wainscoat.  2.24-m f/10.1 reflector + CCD.

Orbital elements:
2024 LL6                                                 Earth MOID = 0.1901 AU
Epoch 2024 Mar. 31.0 TT = JDT 2460400.5                 Veres                   
M 334.39441              (2000.0)            P               Q                  
n   0.25257443     Peri.  111.00004     +0.22091295     +0.97525104             
a   2.4786191      Node   171.74678     -0.91671413     +0.21082124             
e   0.5177567      Incl.    3.63591     -0.33291542     +0.06663186             
P   3.90           H   24.02          G   0.15           U   6                  
Residuals in seconds of arc
240506 F52  0.0   0.0     240531 F51  0.0   0.0     240614 F52  0.0   0.0
240506 F52  0.0   0.3+    240531 F51  0.2-  0.3+    240614 F52  0.1+  0.2-
240506 F52  0.0   0.3-    240613 F51  0.0   0.0     240615 T12  0.0   0.0
240531 F51  0.1+  0.1-    240613 F51  0.2-  0.0     240615 T12 (0.3-  0.2+)
240531 F51  0.2+  0.4-    240613 F51  0.0   0.0

Ephemeris:
2024 LL6                 a,e,i = 2.48, 0.52, 4                   q = 1.1953
Date    TT    R. A. (2000) Decl.     Delta      r    Elong.  Phase     V
2024 05 22    15 45 26.7 -05 07 57   0.3121  1.3157   164.6    11.8    22.8
...
2024 06 06    15 54 26.0 -02 26 47   0.2613  1.2561   154.8    20.1    22.6
...
2024 06 14    16 03 03.9 -01 37 48   0.2429  1.2317   149.8    24.5    22.5
...
2024 06 20    16 12 07.1 -01 25 34   0.2324  1.2172   146.8    27.2    22.5
2024 06 21    16 13 51.9 -01 25 46   0.2309  1.2152   146.3    27.6    22.5
2024 06 22    16 15 41.0 -01 26 37   0.2295  1.2132   145.9    28.0    22.5
...
2024 06 28    16 28 04.5 -01 45 51   0.2226  1.2035   143.8    29.9    22.5
...
2024 07 06    16 48 34.1 -02 49 16   0.2178  1.1963   142.2    31.4    22.4
...
2024 07 21    17 37 41.8 -06 22 50   0.2242  1.2013   142.3    31.1    22.5

M. P. C. Staff               (C) Copyright 2024 MPC           M.P.E.C. 2024-M40





More information about the Iaude mailing list